Weather History for Orlando International, FL

Change the Weather History Date:

Wednesday, January 30, 2013

  Actual Average Record
Temperature  
Mean Temperature 74 °F 61 °F  
Max Temperature 84 °F 72 °F 88 °F (1923)
Min Temperature 63 °F 50 °F 31 °F (1966)
Degree Days  
Heating Degree Days 0 6  
Month to date heating degree days 53 187  
Since 1 July heating degree days 218 378  
Cooling Degree Days 9 2  
Month to date cooling degree days 101 36  
Year to date cooling degree days 101 36  
Growing Degree Days 24 (Base 50)    
Moisture  
Dew Point 63 °F    
Average Humidity 74    
Maximum Humidity 100    
Minimum Humidity 47    
Precipitation  
Precipitation 0.00 in 0.07 in 1.17 in (1960)
Month to date precipitation 0.20 2.27  
Year to date precipitation 0.20 2.27  
Sea Level Pressure  
Sea Level Pressure 30.01 in    
Wind  
Wind Speed 13 mph (South)    
Max Wind Speed 25 mph    
Max Gust Speed 33 mph    
Visibility 10 miles    
Events      
T = Trace of Precipitation, MM = Missing Value Source: NWS Daily Summary

Daily Weather History Graph

Daily Weather History Graph

Search for Another Location

Airport:

Trip Planner

Search our weather history database for the weather conditions in past years. The results will help you decide how hot, cold, wet, or windy it might be!

Date:

Astronomy

Jan. 30, 2013 Rise Set
Actual Time 7:13 AM EST 6:03 PM EST
Civil Twilight 6:49 AM EST 6:28 PM EST
Nautical Twilight 6:20 AM EST 6:56 PM EST
Astronomical Twilight 5:53 AM EST 7:24 PM EST
Moon 9:35 PM EST (1/30) 9:03 AM EST (1/30)
Length of Visible Light 11h 39m
Length of Day
10h 49m
Waning Gibbous, 88% of the Moon is Illuminated
Jan 30
Waning Gibbous
Feb 3
Last Quarter
Feb 10
New
Feb 17
First Quarter
Feb 25
Full

Hourly Weather History & Observations

Time (EST) Temp. Heat Index Dew Point Humidity Pressure Visibility Wind Dir Wind Speed Gust Speed Precip Events Conditions
12:53 AM 68.0 °F - 64.9 °F 90% 30.13 in 10.0 mi SSE 5.8 mph - N/A   Mostly Cloudy
1:53 AM 66.0 °F - 64.0 °F 93% 30.12 in 10.0 mi SSE 4.6 mph - N/A   Clear
2:53 AM 64.9 °F - 63.0 °F 93% 30.11 in 10.0 mi South 3.5 mph - N/A   Clear
3:53 AM 64.0 °F - 63.0 °F 96% 30.09 in 10.0 mi ESE 5.8 mph - N/A   Clear
4:53 AM 63.0 °F - 63.0 °F 100% 30.09 in 10.0 mi South 4.6 mph - N/A   Partly Cloudy
5:53 AM 64.0 °F - 63.0 °F 96% 30.08 in 10.0 mi SSE 5.8 mph - N/A   Partly Cloudy
6:53 AM 64.9 °F - 63.0 °F 93% 30.08 in 10.0 mi SSE 6.9 mph - N/A   Clear
7:53 AM 66.0 °F - 64.0 °F 93% 30.08 in 10.0 mi SSE 8.1 mph - N/A   Clear
8:53 AM 70.0 °F - 64.9 °F 84% 30.06 in 10.0 mi South 13.8 mph - N/A   Clear
9:53 AM 73.9 °F - 64.0 °F 71% 30.05 in 10.0 mi SSE 16.1 mph 25.3 mph N/A   Partly Cloudy
10:53 AM 78.1 °F - 63.0 °F 60% 30.03 in 10.0 mi South 20.7 mph 27.6 mph N/A   Partly Cloudy
11:53 AM 81.0 °F 82.2 °F 63.0 °F 54% 30.01 in 10.0 mi South 20.7 mph 29.9 mph N/A   Scattered Clouds
12:53 PM 80.1 °F 81.2 °F 62.1 °F 54% 29.99 in 10.0 mi South 19.6 mph 26.5 mph N/A   Scattered Clouds
1:53 PM 82.9 °F 83.7 °F 62.1 °F 49% 29.96 in 10.0 mi South 16.1 mph 25.3 mph N/A   Scattered Clouds
2:53 PM 82.9 °F 83.7 °F 62.1 °F 49% 29.94 in 10.0 mi South 19.6 mph 24.2 mph N/A   Scattered Clouds
3:53 PM 82.9 °F 83.7 °F 62.1 °F 49% 29.94 in 10.0 mi South 15.0 mph 23.0 mph N/A   Mostly Cloudy
4:53 PM 82.0 °F 82.7 °F 61.0 °F 49% 29.92 in 10.0 mi South 16.1 mph - N/A   Mostly Cloudy
5:53 PM 80.1 °F 81.1 °F 61.0 °F 52% 29.92 in 10.0 mi SSW 11.5 mph - N/A   Mostly Cloudy
6:53 PM 75.9 °F - 62.1 °F 62% 29.92 in 10.0 mi SSW 17.3 mph 23.0 mph N/A   Scattered Clouds
7:53 PM 73.9 °F - 61.0 °F 64% 29.94 in 10.0 mi SSW 13.8 mph 21.9 mph N/A   Clear
8:53 PM 72.0 °F - 62.1 °F 71% 29.93 in 10.0 mi SSW 13.8 mph 21.9 mph N/A   Partly Cloudy
9:53 PM 71.1 °F - 63.0 °F 75% 29.94 in 10.0 mi SSW 12.7 mph - N/A   Partly Cloudy
10:53 PM 70.0 °F - 64.0 °F 81% 29.92 in 10.0 mi South 15.0 mph - N/A   Partly Cloudy
11:53 PM 70.0 °F - 64.0 °F 81% 29.93 in 10.0 mi South 13.8 mph - N/A   Clear